Location: Westminster
(33.3626°N, 96.4619°W)
Time: 20:42:42
(UTC+00:00)

Okean O Rocket - Pass Details

Date: 03 December 2021
Orbit: 621 x 645 km, 98.2° (Epoch: 26 January)

Event Time Altitude Azimuth Distance (km) Brightness Sun altitude
Rises 23:50:48 0° 128° (SE) 2,935 4.7 -7.1°
Reaches altitude 10° 23:53:37 10° 109° (ESE) 2,034 3.8 -7.6°
Maximum altitude 23:56:31 17° 68° (ENE) 1,602 3.0 -8.2°
Drops below altitude 10° 23:59:26 10° 27° (NNE) 2,046 3.8 -8.8°
Sets 00:02:16 0° 8° (N) 2,961 4.8 -9.3°
